Time,TemperatureF,DewpointF,PressureIn,WindDirection,WindDirectionDegrees,WindSpeedMPH,WindSpeedGustMPH,Humidity,HourlyPrecipIn,Conditions,Clouds,dailyrainin,SoftwareType,DateUTC
2013-06-04 00:02:00,72.4,63.6,29.81,NE,45,0.4,1.1,74,0.00,,,0.00,WUHU216HW,2013-06-04 05:02:00,
2013-06-04 00:07:00,72.2,63.1,29.81,East,90,0.7,1.1,73,0.00,,,0.00,WUHU216HW,2013-06-04 05:07:00,
2013-06-04 00:12:00,72.0,63.3,29.81,East,90,0.4,1.1,74,0.00,,,0.00,WUHU216HW,2013-06-04 05:12:00,
2013-06-04 00:17:00,71.8,63.1,29.81,East,90,0.9,1.1,74,0.00,,,0.00,WUHU216HW,2013-06-04 05:17:00,
2013-06-04 00:22:00,71.6,62.9,29.81,East,90,0.0,1.1,74,0.00,,,0.00,WUHU216HW,2013-06-04 05:22:00,
2013-06-04 00:27:00,71.6,62.9,29.81,ENE,68,0.4,1.1,74,0.00,,,0.00,WUHU216HW,2013-06-04 05:27:00,
2013-06-04 00:32:00,71.5,62.7,29.82,ENE,68,1.1,1.1,74,0.00,,,0.00,WUHU216HW,2013-06-04 05:32:00,
2013-06-04 00:37:00,71.3,62.6,29.82,ENE,68,0.2,1.3,74,0.00,,,0.00,WUHU216HW,2013-06-04 05:37:00,
2013-06-04 00:42:00,71.1,62.7,29.82,ENE,68,0.2,1.3,75,0.00,,,0.00,WUHU216HW,2013-06-04 05:42:00,
2013-06-04 00:47:00,71.1,63.1,29.82,ENE,68,0.4,1.1,76,0.00,,,0.00,WUHU216HW,2013-06-04 05:47:00,
2013-06-04 00:52:00,70.9,62.9,29.82,ENE,68,0.2,1.6,76,0.00,,,0.00,WUHU216HW,2013-06-04 05:52:00,
2013-06-04 00:57:00,70.9,62.9,29.82,NE,45,1.6,2.0,76,0.00,,,0.00,WUHU216HW,2013-06-04 05:57:00,
2013-06-04 01:02:00,70.7,62.7,29.82,ENE,68,0.2,2.0,76,0.00,,,0.00,WUHU216HW,2013-06-04 06:02:00,
2013-06-04 01:07:00,70.6,62.6,29.82,NE,45,0.4,1.3,76,0.00,,,0.00,WUHU216HW,2013-06-04 06:07:00,
2013-06-04 01:12:00,70.4,62.4,29.82,East,90,0.7,1.1,76,0.00,,,0.00,WUHU216HW,2013-06-04 06:12:00,
2013-06-04 01:17:00,70.4,62.7,29.81,NE,45,0.4,0.9,77,0.00,,,0.00,WUHU216HW,2013-06-04 06:17:00,
2013-06-04 01:22:00,70.0,62.8,29.81,East,90,0.0,0.9,78,0.00,,,0.00,WUHU216HW,2013-06-04 06:22:00,
2013-06-04 01:27:00,70.0,63.2,29.81,ESE,113,1.1,1.1,79,0.00,,,0.00,WUHU216HW,2013-06-04 06:27:00,
2013-06-04 01:32:00,69.8,63.4,29.80,East,90,0.7,1.6,80,0.00,,,0.00,WUHU216HW,2013-06-04 06:32:00,
2013-06-04 01:37:00,69.5,63.0,29.81,East,90,1.6,2.2,80,0.00,,,0.00,WUHU216HW,2013-06-04 06:37:00,
2013-06-04 01:42:00,69.5,63.0,29.80,East,90,2.5,2.5,80,0.00,,,0.00,WUHU216HW,2013-06-04 06:42:00,
2013-06-04 01:47:00,69.5,63.4,29.80,ENE,68,2.5,3.1,81,0.00,,,0.00,WUHU216HW,2013-06-04 06:47:00,
2013-06-04 01:52:00,69.5,63.4,29.80,ESE,113,2.7,3.4,81,0.00,,,0.00,WUHU216HW,2013-06-04 06:52:00,
2013-06-04 01:57:00,69.3,63.2,29.80,ESE,113,2.0,3.4,81,0.00,,,0.00,WUHU216HW,2013-06-04 06:57:00,
2013-06-04 02:02:00,69.1,63.1,29.79,ESE,113,2.9,3.6,81,0.00,,,0.00,WUHU216HW,2013-06-04 07:02:00,
2013-06-04 02:07:00,69.3,63.2,29.79,ESE,113,1.1,4.5,81,0.00,,,0.00,WUHU216HW,2013-06-04 07:07:00,
2013-06-04 02:12:00,69.1,63.1,29.80,ESE,113,1.8,4.5,81,0.00,,,0.00,WUHU216HW,2013-06-04 07:12:00,
2013-06-04 02:17:00,69.3,63.2,29.80,East,90,1.3,2.9,81,0.00,,,0.00,WUHU216HW,2013-06-04 07:17:00,
2013-06-04 02:22:00,69.3,63.2,29.80,ESE,113,2.9,3.4,81,0.00,,,0.00,WUHU216HW,2013-06-04 07:22:00,
2013-06-04 02:27:00,69.3,63.2,29.80,ESE,113,2.2,4.5,81,0.00,,,0.00,WUHU216HW,2013-06-04 07:27:00,
2013-06-04 02:32:00,69.5,63.4,29.80,East,90,4.3,5.4,81,0.00,,,0.00,WUHU216HW,2013-06-04 07:32:00,
2013-06-04 02:37:00,69.5,63.4,29.80,ESE,113,3.4,5.4,81,0.00,,,0.00,WUHU216HW,2013-06-04 07:37:00,
2013-06-04 02:42:00,69.7,63.2,29.80,SE,135,3.8,4.9,80,0.00,,,0.00,WUHU216HW,2013-06-04 07:42:00,
2013-06-04 02:47:00,69.7,63.2,29.80,ESE,113,2.9,4.9,80,0.00,,,0.00,WUHU216HW,2013-06-04 07:47:00,
2013-06-04 02:52:00,69.7,63.2,29.80,ESE,113,3.4,3.4,80,0.00,,,0.00,WUHU216HW,2013-06-04 07:52:00,
2013-06-04 02:57:00,69.5,63.0,29.80,SE,135,2.0,3.6,80,0.00,,,0.00,WUHU216HW,2013-06-04 07:57:00,
2013-06-04 03:02:00,69.5,63.0,29.80,ESE,113,2.7,3.8,80,0.00,,,0.00,WUHU216HW,2013-06-04 08:02:00,
2013-06-04 03:07:00,69.3,62.9,29.80,ESE,113,2.5,3.8,80,0.00,,,0.00,WUHU216HW,2013-06-04 08:07:00,
2013-06-04 03:12:00,69.1,63.1,29.80,SE,135,2.5,3.4,81,0.00,,,0.00,WUHU216HW,2013-06-04 08:12:00,
2013-06-04 03:17:00,69.1,62.7,29.79,SSE,158,2.0,3.1,80,0.00,,,0.00,WUHU216HW,2013-06-04 08:17:00,
2013-06-04 03:22:00,69.1,62.7,29.79,East,90,1.3,2.0,80,0.00,,,0.00,WUHU216HW,2013-06-04 08:22:00,
2013-06-04 03:27:00,69.1,62.7,29.79,ESE,113,0.9,1.8,80,0.00,,,0.00,WUHU216HW,2013-06-04 08:27:00,
2013-06-04 03:32:00,69.1,62.7,29.79,ESE,113,1.3,1.6,80,0.00,,,0.00,WUHU216HW,2013-06-04 08:32:00,
2013-06-04 03:37:00,68.9,62.6,29.79,ESE,113,0.9,1.8,80,0.00,,,0.00,WUHU216HW,2013-06-04 08:37:00,
2013-06-04 03:42:00,68.9,62.9,29.79,ESE,113,0.4,1.8,81,0.00,,,0.00,WUHU216HW,2013-06-04 08:42:00,
2013-06-04 03:47:00,68.8,62.7,29.79,ESE,113,1.6,2.0,81,0.00,,,0.00,WUHU216HW,2013-06-04 08:47:00,
2013-06-04 03:52:00,68.8,62.7,29.79,East,90,0.9,2.0,81,0.00,,,0.00,WUHU216HW,2013-06-04 08:52:00,
2013-06-04 03:57:00,68.4,62.7,29.79,ESE,113,1.6,1.8,82,0.00,,,0.00,WUHU216HW,2013-06-04 08:57:00,
2013-06-04 04:02:00,68.4,62.7,29.79,ESE,113,2.7,2.7,82,0.00,,,0.00,WUHU216HW,2013-06-04 09:02:00,
2013-06-04 04:07:00,68.0,62.4,29.79,ESE,113,1.8,2.7,82,0.00,,,0.00,WUHU216HW,2013-06-04 09:07:00,
2013-06-04 04:12:00,67.7,62.4,29.79,ESE,113,1.8,2.7,83,0.00,,,0.00,WUHU216HW,2013-06-04 09:12:00,
2013-06-04 04:17:00,67.7,62.4,29.78,East,90,0.0,2.7,83,0.00,,,0.00,WUHU216HW,2013-06-04 09:17:00,
2013-06-04 04:22:00,67.7,62.4,29.78,East,90,1.8,1.8,83,0.00,,,0.00,WUHU216HW,2013-06-04 09:22:00,
2013-06-04 04:27:00,67.7,62.4,29.78,ESE,113,2.2,2.2,83,0.00,,,0.00,WUHU216HW,2013-06-04 09:27:00,
2013-06-04 04:32:00,67.3,62.3,29.78,ESE,113,1.1,3.4,84,0.00,,,0.00,WUHU216HW,2013-06-04 09:32:00,
2013-06-04 04:37:00,67.3,62.3,29.77,ESE,113,1.6,3.4,84,0.00,,,0.00,WUHU216HW,2013-06-04 09:37:00,
2013-06-04 04:42:00,67.3,62.3,29.77,East,90,0.2,2.0,84,0.00,,,0.00,WUHU216HW,2013-06-04 09:42:00,
2013-06-04 04:47:00,67.3,62.3,29.77,East,90,0.2,3.1,84,0.00,,,0.00,WUHU216HW,2013-06-04 09:47:00,
2013-06-04 04:52:00,67.3,62.3,29.77,ESE,113,0.9,3.1,84,0.00,,,0.00,WUHU216HW,2013-06-04 09:52:00,
2013-06-04 04:57:00,67.3,62.3,29.77,ESE,113,1.1,1.6,84,0.00,,,0.00,WUHU216HW,2013-06-04 09:57:00,
2013-06-04 05:02:00,67.1,62.1,29.78,ESE,113,2.2,2.2,84,0.00,,,0.00,WUHU216HW,2013-06-04 10:02:00,
2013-06-04 05:07:00,67.1,62.1,29.78,ESE,113,2.5,2.5,84,0.00,,,0.00,WUHU216HW,2013-06-04 10:07:00,
2013-06-04 05:12:00,67.1,62.1,29.78,ESE,113,1.1,2.5,84,0.00,,,0.00,WUHU216HW,2013-06-04 10:12:00,
2013-06-04 05:17:00,67.1,62.5,29.78,East,90,0.7,2.2,85,0.00,,,0.00,WUHU216HW,2013-06-04 10:17:00,
2013-06-04 05:22:00,67.1,62.5,29.79,ESE,113,0.2,1.6,85,0.00,,,0.00,WUHU216HW,2013-06-04 10:22:00,
2013-06-04 05:27:00,67.0,61.9,29.79,ENE,68,0.9,0.9,84,0.00,,,0.00,WUHU216HW,2013-06-04 10:27:00,
2013-06-04 05:32:00,67.0,62.3,29.79,NE,45,0.0,1.3,85,0.00,,,0.00,WUHU216HW,2013-06-04 10:32:00,
2013-06-04 05:37:00,67.0,62.7,29.79,ESE,113,2.2,2.9,86,0.00,,,0.00,WUHU216HW,2013-06-04 10:37:00,
2013-06-04 05:42:00,67.1,62.5,29.79,ESE,113,3.1,4.0,85,0.00,,,0.00,WUHU216HW,2013-06-04 10:42:00,
2013-06-04 05:47:00,67.1,62.5,29.79,ESE,113,5.1,5.1,85,0.00,,,0.00,WUHU216HW,2013-06-04 10:47:00,
2013-06-04 05:52:00,67.1,62.5,29.79,ESE,113,3.6,5.1,85,0.00,,,0.00,WUHU216HW,2013-06-04 10:52:00,
2013-06-04 05:57:00,67.1,62.8,29.79,ESE,113,2.9,4.7,86,0.00,,,0.00,WUHU216HW,2013-06-04 10:57:00,
2013-06-04 06:02:00,67.1,62.8,29.80,ESE,113,1.6,3.4,86,0.00,,,0.00,WUHU216HW,2013-06-04 11:02:00,
2013-06-04 06:07:00,67.3,63.0,29.80,East,90,0.7,3.4,86,0.00,,,0.00,WUHU216HW,2013-06-04 11:07:00,
2013-06-04 06:12:00,67.3,62.6,29.81,ENE,68,0.7,3.1,85,0.00,,,0.00,WUHU216HW,2013-06-04 11:12:00,
2013-06-04 06:17:00,67.3,62.6,29.81,North,0,0.4,3.1,85,0.00,,,0.00,WUHU216HW,2013-06-04 11:17:00,
2013-06-04 06:22:00,67.3,62.6,29.81,ENE,68,0.9,1.1,85,0.00,,,0.00,WUHU216HW,2013-06-04 11:22:00,
2013-06-04 06:27:00,67.3,62.6,29.81,ENE,68,0.9,0.9,85,0.00,,,0.00,WUHU216HW,2013-06-04 11:27:00,
2013-06-04 06:32:00,67.3,62.6,29.82,NE,45,0.7,1.6,85,0.00,,,0.00,WUHU216HW,2013-06-04 11:32:00,
2013-06-04 06:37:00,67.3,63.0,29.82,SE,135,1.8,1.8,86,0.00,,,0.00,WUHU216HW,2013-06-04 11:37:00,
2013-06-04 06:42:00,67.3,63.0,29.81,ESE,113,1.1,1.8,86,0.00,,,0.00,WUHU216HW,2013-06-04 11:42:00,
2013-06-04 06:47:00,67.3,63.0,29.82,ESE,113,0.4,1.1,86,0.00,,,0.00,WUHU216HW,2013-06-04 11:47:00,
2013-06-04 06:52:00,67.5,63.2,29.82,ESE,113,1.8,1.8,86,0.00,,,0.00,WUHU216HW,2013-06-04 11:52:00,
2013-06-04 06:57:00,67.5,63.2,29.82,ESE,113,0.9,1.8,86,0.00,,,0.00,WUHU216HW,2013-06-04 11:57:00,
2013-06-04 07:02:00,67.7,63.4,29.82,East,90,1.1,1.6,86,0.00,,,0.00,WUHU216HW,2013-06-04 12:02:00,
2013-06-04 07:07:00,67.9,63.6,29.81,ESE,113,2.0,2.0,86,0.00,,,0.00,WUHU216HW,2013-06-04 12:07:00,
2013-06-04 07:12:00,68.2,63.9,29.81,East,90,2.5,4.0,86,0.00,,,0.00,WUHU216HW,2013-06-04 12:12:00,
2013-06-04 07:17:00,68.6,64.2,29.82,ESE,113,3.8,4.0,86,0.00,,,0.00,WUHU216HW,2013-06-04 12:17:00,
2013-06-04 07:22:00,68.9,63.9,29.82,ESE,113,2.0,3.8,84,0.00,,,0.00,WUHU216HW,2013-06-04 12:22:00,
2013-06-04 07:27:00,69.5,64.4,29.82,ESE,113,4.7,4.7,84,0.00,,,0.00,WUHU216HW,2013-06-04 12:27:00,
2013-06-04 07:32:00,70.2,65.1,29.82,ESE,113,2.7,4.7,84,0.00,,,0.00,WUHU216HW,2013-06-04 12:32:00,
2013-06-04 07:37:00,70.6,65.1,29.82,ESE,113,4.9,6.9,83,0.00,,,0.00,WUHU216HW,2013-06-04 12:37:00,
2013-06-04 07:42:00,70.9,65.2,29.82,SE,135,2.9,6.9,82,0.00,,,0.00,WUHU216HW,2013-06-04 12:42:00,
2013-06-04 07:47:00,71.3,65.2,29.82,East,90,6.5,6.5,81,0.00,,,0.00,WUHU216HW,2013-06-04 12:47:00,
2013-06-04 07:52:00,71.6,65.5,29.82,SE,135,2.5,7.4,81,0.00,,,0.00,WUHU216HW,2013-06-04 12:52:00,
2013-06-04 07:57:00,72.2,65.7,29.82,ESE,113,5.6,7.4,80,0.00,,,0.00,WUHU216HW,2013-06-04 12:57:00,
2013-06-04 08:02:00,72.7,66.2,29.82,SE,135,4.0,6.9,80,0.00,,,0.00,WUHU216HW,2013-06-04 13:02:00,
2013-06-04 08:07:00,73.1,66.3,29.82,East,90,5.8,5.8,79,0.00,,,0.00,WUHU216HW,2013-06-04 13:07:00,
2013-06-04 08:12:00,73.6,66.8,29.82,ESE,113,2.7,5.8,79,0.00,,,0.00,WUHU216HW,2013-06-04 13:12:00,
2013-06-04 08:17:00,74.0,66.7,29.83,East,90,6.0,6.5,78,0.00,,,0.00,WUHU216HW,2013-06-04 13:17:00,
2013-06-04 08:22:00,74.2,66.9,29.83,ESE,113,5.4,6.5,78,0.00,,,0.00,WUHU216HW,2013-06-04 13:22:00,
2013-06-04 08:27:00,74.7,66.7,29.83,ESE,113,6.0,6.3,76,0.00,,,0.00,WUHU216HW,2013-06-04 13:27:00,
2013-06-04 08:32:00,75.2,67.1,29.84,ESE,113,4.3,7.2,76,0.00,,,0.00,WUHU216HW,2013-06-04 13:32:00,
2013-06-04 08:37:00,75.2,67.1,29.84,SE,135,4.5,7.2,76,0.00,,,0.00,WUHU216HW,2013-06-04 13:37:00,
2013-06-04 08:42:00,75.6,67.5,29.85,ESE,113,6.3,6.9,76,0.00,,,0.00,WUHU216HW,2013-06-04 13:42:00,
2013-06-04 08:47:00,76.1,67.7,29.85,SE,135,4.0,6.9,75,0.00,,,0.00,WUHU216HW,2013-06-04 13:47:00,
2013-06-04 08:52:00,76.9,68.3,29.86,SE,135,4.3,6.9,75,0.00,,,0.00,WUHU216HW,2013-06-04 13:52:00,
2013-06-04 08:57:00,77.4,67.7,29.87,East,90,2.2,4.3,72,0.00,,,0.00,WUHU216HW,2013-06-04 13:57:00,
2013-06-04 09:02:00,77.6,68.2,29.88,ESE,113,2.5,3.1,73,0.00,,,0.00,WUHU216HW,2013-06-04 14:02:00,
2013-06-04 09:07:00,78.1,68.0,29.88,ESE,113,2.0,2.7,71,0.00,,,0.00,WUHU216HW,2013-06-04 14:07:00,
2013-06-04 09:12:00,78.5,68.3,29.89,ESE,113,2.0,4.0,71,0.00,,,0.00,WUHU216HW,2013-06-04 14:12:00,
2013-06-04 09:17:00,78.8,68.6,29.88,ESE,113,1.3,4.7,71,0.00,,,0.00,WUHU216HW,2013-06-04 14:17:00,
2013-06-04 09:22:00,79.2,68.1,29.89,South,180,0.9,4.7,69,0.00,,,0.00,WUHU216HW,2013-06-04 14:22:00,
2013-06-04 09:27:00,79.0,68.4,29.90,SW,225,0.7,3.1,70,0.00,,,0.00,WUHU216HW,2013-06-04 14:27:00,
2013-06-04 09:32:00,79.0,67.5,29.90,ESE,113,1.8,2.2,68,0.00,,,0.00,WUHU216HW,2013-06-04 14:32:00,
2013-06-04 09:37:00,79.2,67.7,29.90,SE,135,0.4,2.2,68,0.00,,,0.00,WUHU216HW,2013-06-04 14:37:00,
2013-06-04 09:42:00,79.4,68.3,29.90,SSE,158,2.0,2.0,69,0.00,,,0.00,WUHU216HW,2013-06-04 14:42:00,
2013-06-04 09:47:00,79.6,68.5,29.90,NNE,23,0.0,2.0,69,0.00,,,0.00,WUHU216HW,2013-06-04 14:47:00,
2013-06-04 09:53:00,79.9,68.9,29.91,North,0,0.0,2.0,69,0.00,,,0.00,WUHU216HW,2013-06-04 14:53:00,
2013-06-04 09:58:00,80.3,68.8,29.91,NNW,338,2.9,2.9,68,0.00,,,0.00,WUHU216HW,2013-06-04 14:58:00,
2013-06-04 10:03:00,79.9,68.4,29.93,North,0,1.1,2.9,68,0.00,,,0.00,WUHU216HW,2013-06-04 15:03:00,
2013-06-04 10:08:00,79.0,68.0,29.93,North,0,3.6,4.0,69,0.00,,,0.00,WUHU216HW,2013-06-04 15:08:00,
2013-06-04 10:13:00,77.9,67.8,29.93,NNE,23,2.5,4.9,71,0.00,,,0.00,WUHU216HW,2013-06-04 15:13:00,
2013-06-04 10:18:00,77.4,67.7,29.92,North,0,5.8,8.3,72,0.00,,,0.00,WUHU216HW,2013-06-04 15:18:00,
2013-06-04 10:23:00,77.8,68.1,29.93,NNW,338,2.2,8.3,72,0.00,,,0.00,WUHU216HW,2013-06-04 15:23:00,
2013-06-04 10:28:00,78.7,68.5,29.92,ENE,68,4.5,8.3,71,0.00,,,0.00,WUHU216HW,2013-06-04 15:28:00,
2013-06-04 10:33:00,79.6,69.3,29.92,NNE,23,3.1,8.3,71,0.00,,,0.00,WUHU216HW,2013-06-04 15:33:00,
2013-06-04 10:38:00,80.6,69.6,29.91,North,0,4.0,6.9,69,0.00,,,0.00,WUHU216HW,2013-06-04 15:38:00,
2013-06-04 10:43:00,80.6,69.1,29.91,North,0,6.5,8.5,68,0.00,,,0.00,WUHU216HW,2013-06-04 15:43:00,
2013-06-04 10:48:00,80.6,69.1,29.90,NNE,23,7.6,8.7,68,0.00,,,0.00,WUHU216HW,2013-06-04 15:48:00,
2013-06-04 10:53:00,80.3,68.3,29.90,ESE,113,4.7,8.7,67,0.00,,,0.00,WUHU216HW,2013-06-04 15:53:00,
2013-06-04 10:58:00,79.9,68.4,29.90,North,0,8.1,8.1,68,0.00,,,0.00,WUHU216HW,2013-06-04 15:58:00,
2013-06-04 11:03:00,80.5,68.5,29.90,North,0,6.9,8.1,67,0.00,,,0.00,WUHU216HW,2013-06-04 16:03:00,
2013-06-04 11:08:00,80.6,68.7,29.89,NNE,23,3.6,8.1,67,0.00,,,0.00,WUHU216HW,2013-06-04 16:08:00,
2013-06-04 11:13:00,80.8,68.4,29.89,NE,45,4.0,7.4,66,0.00,,,0.00,WUHU216HW,2013-06-04 16:13:00,
2013-06-04 11:18:00,80.5,68.9,29.89,North,0,8.9,10.3,68,0.00,,,0.00,WUHU216HW,2013-06-04 16:18:00,
2013-06-04 11:23:00,80.6,68.7,29.89,NNE,23,7.6,10.3,67,0.00,,,0.00,WUHU216HW,2013-06-04 16:23:00,
2013-06-04 11:28:00,81.2,68.7,29.88,North,0,4.9,7.6,66,0.00,,,0.00,WUHU216HW,2013-06-04 16:28:00,
2013-06-04 11:33:00,81.5,69.0,29.88,East,90,3.6,7.4,66,0.00,,,0.00,WUHU216HW,2013-06-04 16:33:00,
2013-06-04 11:38:00,81.5,69.5,29.88,East,90,1.1,6.9,67,0.00,,,0.00,WUHU216HW,2013-06-04 16:38:00,
2013-06-04 11:43:00,81.9,69.4,29.87,NNE,23,4.0,6.9,66,0.00,,,0.00,WUHU216HW,2013-06-04 16:43:00,
2013-06-04 11:48:00,82.4,69.4,29.87,ENE,68,1.8,6.3,65,0.00,,,0.00,WUHU216HW,2013-06-04 16:48:00,
2013-06-04 11:53:00,82.4,69.4,29.86,ENE,68,3.1,6.0,65,0.00,,,0.00,WUHU216HW,2013-06-04 16:53:00,
2013-06-04 11:58:00,82.1,69.5,29.86,NE,45,4.0,4.0,66,0.00,,,0.00,WUHU216HW,2013-06-04 16:58:00,
2013-06-04 12:03:00,81.9,69.4,29.85,ENE,68,2.5,4.9,66,0.00,,,0.00,WUHU216HW,2013-06-04 17:03:00,
2013-06-04 12:08:00,82.4,69.4,29.85,ENE,68,3.8,4.9,65,0.00,,,0.00,WUHU216HW,2013-06-04 17:08:00,
2013-06-04 12:13:00,82.1,69.0,29.84,North,0,3.4,5.4,65,0.00,,,0.00,WUHU216HW,2013-06-04 17:13:00,
2013-06-04 12:18:00,82.4,69.4,29.84,NW,315,3.1,6.0,65,0.00,,,0.00,WUHU216HW,2013-06-04 17:18:00,
2013-06-04 12:23:00,82.8,70.7,29.83,NE,45,2.7,7.6,67,0.00,,,0.00,WUHU216HW,2013-06-04 17:23:00,
2013-06-04 12:28:00,82.4,69.4,29.83,ESE,113,8.5,8.5,65,0.00,,,0.00,WUHU216HW,2013-06-04 17:28:00,
2013-06-04 12:33:00,83.0,70.4,29.82,ESE,113,6.5,8.5,66,0.00,,,0.00,WUHU216HW,2013-06-04 17:33:00,
2013-06-04 12:38:00,83.2,70.6,29.82,ESE,113,8.9,8.9,66,0.00,,,0.00,WUHU216HW,2013-06-04 17:38:00,
2013-06-04 12:43:00,83.2,70.1,29.81,NE,45,6.3,8.9,65,0.00,,,0.00,WUHU216HW,2013-06-04 17:43:00,
2013-06-04 12:48:00,83.5,70.5,29.80,SSE,158,6.3,8.3,65,0.00,,,0.00,WUHU216HW,2013-06-04 17:48:00,
2013-06-04 12:53:00,83.7,70.7,29.80,ESE,113,9.6,9.6,65,0.00,,,0.00,WUHU216HW,2013-06-04 17:53:00,
2013-06-04 12:58:00,83.5,70.0,29.80,ESE,113,7.6,10.5,64,0.00,,,0.00,WUHU216HW,2013-06-04 17:58:00,
2013-06-04 13:03:00,83.9,69.9,29.80,South,180,8.5,10.5,63,0.00,,,0.00,WUHU216HW,2013-06-04 18:03:00,
2013-06-04 13:08:00,84.2,71.2,29.80,East,90,5.4,9.8,65,0.00,,,0.00,WUHU216HW,2013-06-04 18:08:00,
2013-06-04 13:13:00,85.1,70.7,29.79,SE,135,10.1,10.1,62,0.00,,,0.00,WUHU216HW,2013-06-04 18:13:00,
2013-06-04 13:18:00,85.1,70.2,29.79,ESE,113,12.1,12.1,61,0.00,,,0.00,WUHU216HW,2013-06-04 18:18:00,
2013-06-04 13:23:00,85.3,70.8,29.78,SE,135,5.8,12.1,62,0.00,,,0.00,WUHU216HW,2013-06-04 18:23:00,
2013-06-04 13:28:00,85.5,71.9,29.78,ESE,113,1.8,8.5,64,0.00,,,0.00,WUHU216HW,2013-06-04 18:28:00,
2013-06-04 13:33:00,85.9,71.4,29.78,ENE,68,6.9,8.5,62,0.00,,,0.00,WUHU216HW,2013-06-04 18:33:00,
2013-06-04 13:38:00,85.7,69.8,29.78,ESE,113,4.0,8.1,59,0.00,,,0.00,WUHU216HW,2013-06-04 18:38:00,
2013-06-04 13:43:00,85.7,70.2,29.78,SE,135,8.3,8.7,60,0.00,,,0.00,WUHU216HW,2013-06-04 18:43:00,
2013-06-04 13:48:00,86.0,71.5,29.77,SE,135,7.6,8.7,62,0.00,,,0.00,WUHU216HW,2013-06-04 18:48:00,
2013-06-04 13:53:00,86.4,70.9,29.77,SE,135,6.0,10.5,60,0.00,,,0.00,WUHU216HW,2013-06-04 18:53:00,
2013-06-04 13:58:00,86.6,70.6,29.77,ESE,113,2.9,10.5,59,0.00,,,0.00,WUHU216HW,2013-06-04 18:58:00,
2013-06-04 14:03:00,86.8,70.2,29.77,ESE,113,8.1,8.1,58,0.00,,,0.00,WUHU216HW,2013-06-04 19:03:00,
2013-06-04 14:08:00,86.8,69.7,29.77,East,90,7.6,10.5,57,0.00,,,0.00,WUHU216HW,2013-06-04 19:08:00,
2013-06-04 14:13:00,86.9,70.4,29.76,ESE,113,11.2,11.2,58,0.00,,,0.00,WUHU216HW,2013-06-04 19:13:00,
2013-06-04 14:18:00,87.1,70.0,29.76,SE,135,4.9,11.2,57,0.00,,,0.00,WUHU216HW,2013-06-04 19:18:00,
2013-06-04 14:23:00,87.5,69.8,29.76,SE,135,8.3,8.3,56,0.00,,,0.00,WUHU216HW,2013-06-04 19:23:00,
2013-06-04 14:28:00,87.8,70.2,29.76,SE,135,6.3,10.3,56,0.00,,,0.00,WUHU216HW,2013-06-04 19:28:00,
2013-06-04 14:33:00,88.2,70.6,29.76,SSE,158,2.0,10.3,56,0.00,,,0.00,WUHU216HW,2013-06-04 19:33:00,
2013-06-04 14:38:00,88.7,71.0,29.75,ESE,113,6.0,6.3,56,0.00,,,0.00,WUHU216HW,2013-06-04 19:38:00,
2013-06-04 14:43:00,88.6,69.2,29.75,ESE,113,7.8,7.8,53,0.00,,,0.00,WUHU216HW,2013-06-04 19:43:00,
2013-06-04 14:48:00,88.6,69.8,29.75,ESE,113,3.4,7.8,54,0.00,,,0.00,WUHU216HW,2013-06-04 19:48:00,
2013-06-04 14:53:00,88.6,69.8,29.75,SSW,203,2.5,7.6,54,0.00,,,0.00,WUHU216HW,2013-06-04 19:53:00,
2013-06-04 14:58:00,88.7,69.4,29.75,SE,135,3.4,5.1,53,0.00,,,0.00,WUHU216HW,2013-06-04 19:58:00,
2013-06-04 15:03:00,88.7,69.9,29.75,SE,135,8.5,8.5,54,0.00,,,0.00,WUHU216HW,2013-06-04 20:03:00,
2013-06-04 15:08:00,89.3,70.9,29.75,SE,135,2.0,8.5,55,0.00,,,0.00,WUHU216HW,2013-06-04 20:08:00,
2013-06-04 15:13:00,89.6,70.7,29.75,SSE,158,6.3,8.5,54,0.00,,,0.00,WUHU216HW,2013-06-04 20:13:00,
2013-06-04 15:18:00,89.6,69.7,29.75,SE,135,3.8,6.9,52,0.00,,,0.00,WUHU216HW,2013-06-04 20:18:00,
2013-06-04 15:23:00,89.3,69.8,29.75,SE,135,6.3,9.6,53,0.00,,,0.00,WUHU216HW,2013-06-04 20:23:00,
2013-06-04 15:28:00,89.5,71.6,29.75,WSW,248,3.8,9.6,56,0.00,,,0.00,WUHU216HW,2013-06-04 20:28:00,
2013-06-04 15:33:00,89.6,69.7,29.75,ESE,113,4.9,6.0,52,0.00,,,0.00,WUHU216HW,2013-06-04 20:33:00,
2013-06-04 15:38:00,89.6,70.2,29.74,SE,135,6.9,6.9,53,0.00,,,0.00,WUHU216HW,2013-06-04 20:38:00,
2013-06-04 15:43:00,89.6,69.1,29.74,SE,135,9.2,9.8,51,0.00,,,0.00,WUHU216HW,2013-06-04 20:43:00,
2013-06-04 15:48:00,89.5,69.5,29.74,SSE,158,1.6,9.8,52,0.00,,,0.00,WUHU216HW,2013-06-04 20:48:00,
2013-06-04 15:53:00,90.0,70.0,29.74,SE,135,9.4,9.4,52,0.00,,,0.00,WUHU216HW,2013-06-04 20:53:00,
2013-06-04 15:58:00,90.0,69.5,29.74,ESE,113,1.8,9.4,51,0.00,,,0.00,WUHU216HW,2013-06-04 20:58:00,
2013-06-04 16:03:00,90.2,71.2,29.74,SSE,158,5.1,9.4,54,0.00,,,0.00,WUHU216HW,2013-06-04 21:03:00,
2013-06-04 16:08:00,90.2,70.1,29.74,SE,135,4.0,8.3,52,0.00,,,0.00,WUHU216HW,2013-06-04 21:08:00,
2013-06-04 16:13:00,90.2,70.7,29.74,ESE,113,8.1,8.7,53,0.00,,,0.00,WUHU216HW,2013-06-04 21:13:00,
2013-06-04 16:18:00,90.0,71.1,29.74,WSW,248,3.8,8.9,54,0.00,,,0.00,WUHU216HW,2013-06-04 21:18:00,
2013-06-04 16:23:00,90.2,70.7,29.74,ESE,113,5.4,8.9,53,0.00,,,0.00,WUHU216HW,2013-06-04 21:23:00,
2013-06-04 16:28:00,90.0,71.1,29.73,East,90,7.2,9.2,54,0.00,,,0.00,WUHU216HW,2013-06-04 21:28:00,
2013-06-04 16:33:00,90.4,70.3,29.73,ESE,113,5.8,9.2,52,0.00,,,0.00,WUHU216HW,2013-06-04 21:33:00,
2013-06-04 16:38:00,90.4,70.8,29.73,SSE,158,4.0,7.2,53,0.00,,,0.00,WUHU216HW,2013-06-04 21:38:00,
2013-06-04 16:43:00,90.2,70.7,29.73,South,180,2.0,6.9,53,0.00,,,0.00,WUHU216HW,2013-06-04 21:43:00,
2013-06-04 16:48:00,90.2,71.2,29.73,ESE,113,2.0,6.9,54,0.00,,,0.00,WUHU216HW,2013-06-04 21:48:00,
2013-06-04 16:53:00,90.2,70.7,29.72,ESE,113,8.9,8.9,53,0.00,,,0.00,WUHU216HW,2013-06-04 21:53:00,
2013-06-04 16:58:00,90.2,71.2,29.73,ESE,113,7.8,8.9,54,0.00,,,0.00,WUHU216HW,2013-06-04 21:58:00,
2013-06-04 17:03:00,90.2,70.1,29.73,East,90,6.5,7.8,52,0.00,,,0.00,WUHU216HW,2013-06-04 22:03:00,
2013-06-04 17:08:00,90.4,69.2,29.73,North,0,0.0,6.5,50,0.00,,,0.00,WUHU216HW,2013-06-04 22:08:00,
2013-06-04 17:13:00,90.9,70.8,29.72,North,0,0.0,6.5,52,0.00,,,0.00,WUHU216HW,2013-06-04 22:13:00,
2013-06-04 17:18:00,91.1,70.9,29.72,North,0,0.0,0.0,52,0.00,,,0.00,WUHU216HW,2013-06-04 22:18:00,
2013-06-04 17:23:00,90.7,70.1,29.73,North,0,0.0,0.0,51,0.00,,,0.00,WUHU216HW,2013-06-04 22:23:00,
2013-06-04 17:28:00,90.4,69.8,29.72,North,0,0.0,0.0,51,0.00,,,0.00,WUHU216HW,2013-06-04 22:28:00,
2013-06-04 17:33:00,90.4,70.3,29.73,North,0,0.0,0.0,52,0.00,,,0.00,WUHU216HW,2013-06-04 22:33:00,
2013-06-04 17:38:00,90.2,69.6,29.73,North,0,0.0,0.0,51,0.00,,,0.00,WUHU216HW,2013-06-04 22:38:00,
2013-06-04 17:43:00,90.2,70.1,29.73,North,0,0.0,0.0,52,0.00,,,0.00,WUHU216HW,2013-06-04 22:43:00,
2013-06-04 17:48:00,90.0,70.0,29.73,North,0,0.0,0.0,52,0.00,,,0.00,WUHU216HW,2013-06-04 22:48:00,
2013-06-04 17:53:00,89.8,70.9,29.73,North,0,0.0,0.0,54,0.00,,,0.00,WUHU216HW,2013-06-04 22:53:00,
2013-06-04 17:58:00,90.0,71.7,29.72,North,0,0.0,0.0,55,0.00,,,0.00,WUHU216HW,2013-06-04 22:58:00,
2013-06-04 18:03:00,90.0,70.6,29.72,North,0,0.0,0.0,53,0.00,,,0.00,WUHU216HW,2013-06-04 23:03:00,
2013-06-04 18:08:00,89.8,69.9,29.73,North,0,0.0,0.0,52,0.00,,,0.00,WUHU216HW,2013-06-04 23:08:00,
2013-06-04 18:13:00,89.6,70.2,29.73,North,0,0.0,0.0,53,0.00,,,0.00,WUHU216HW,2013-06-04 23:13:00,
2013-06-04 18:18:00,89.3,69.8,29.72,North,0,0.0,0.0,53,0.00,,,0.00,WUHU216HW,2013-06-04 23:18:00,
2013-06-04 18:23:00,89.5,69.5,29.73,SE,135,5.6,5.6,52,0.00,,,0.00,WUHU216HW,2013-06-04 23:23:00,
2013-06-04 18:28:00,89.3,69.3,29.73,East,90,7.8,7.8,52,0.00,,,0.00,WUHU216HW,2013-06-04 23:28:00,
2013-06-04 18:33:00,88.9,69.6,29.73,ESE,113,4.7,8.7,53,0.00,,,0.00,WUHU216HW,2013-06-04 23:33:00,
2013-06-04 18:38:00,88.9,70.1,29.73,SE,135,5.1,8.7,54,0.00,,,0.00,WUHU216HW,2013-06-04 23:38:00,
2013-06-04 18:43:00,88.9,70.1,29.73,ESE,113,2.9,5.4,54,0.00,,,0.00,WUHU216HW,2013-06-04 23:43:00,
2013-06-04 18:48:00,88.7,69.9,29.73,ESE,113,2.0,5.4,54,0.00,,,0.00,WUHU216HW,2013-06-04 23:48:00,
2013-06-04 18:53:00,88.7,69.9,29.73,ESE,113,3.4,4.7,54,0.00,,,0.00,WUHU216HW,2013-06-04 23:53:00,
2013-06-04 18:58:00,88.6,69.8,29.73,East,90,4.9,6.7,54,0.00,,,0.00,WUHU216HW,2013-06-04 23:58:00,
2013-06-04 19:03:00,88.2,70.0,29.73,ESE,113,4.9,6.7,55,0.00,,,0.00,WUHU216HW,2013-06-05 00:03:00,
2013-06-04 19:08:00,88.0,69.9,29.73,SSE,158,2.7,4.9,55,0.00,,,0.00,WUHU216HW,2013-06-05 00:08:00,
2013-06-04 19:13:00,87.8,69.7,29.73,East,90,5.4,5.4,55,0.00,,,0.00,WUHU216HW,2013-06-05 00:13:00,
2013-06-04 19:18:00,87.5,69.8,29.73,ENE,68,2.5,5.6,56,0.00,,,0.00,WUHU216HW,2013-06-05 00:18:00,
2013-06-04 19:23:00,87.3,70.2,29.73,East,90,3.4,5.6,57,0.00,,,0.00,WUHU216HW,2013-06-05 00:23:00,
2013-06-04 19:28:00,86.9,69.8,29.74,East,90,2.5,3.4,57,0.00,,,0.00,WUHU216HW,2013-06-05 00:28:00,
2013-06-04 19:33:00,86.9,69.3,29.74,East,90,4.0,5.1,56,0.00,,,0.00,WUHU216HW,2013-06-05 00:33:00,
2013-06-04 19:38:00,86.8,69.7,29.74,ENE,68,2.7,5.1,57,0.00,,,0.00,WUHU216HW,2013-06-05 00:38:00,
2013-06-04 19:43:00,86.4,69.3,29.74,ESE,113,3.4,3.8,57,0.00,,,0.00,WUHU216HW,2013-06-05 00:43:00,
2013-06-04 19:48:00,86.2,70.2,29.74,ESE,113,1.3,3.8,59,0.00,,,0.00,WUHU216HW,2013-06-05 00:48:00,
2013-06-04 19:53:00,85.9,69.8,29.74,ENE,68,1.3,2.9,59,0.00,,,0.00,WUHU216HW,2013-06-05 00:53:00,
2013-06-04 19:58:00,85.7,70.2,29.74,East,90,1.6,3.6,60,0.00,,,0.00,WUHU216HW,2013-06-05 00:58:00,
2013-06-04 20:03:00,85.3,70.4,29.74,East,90,2.0,3.6,61,0.00,,,0.00,WUHU216HW,2013-06-05 01:03:00,
2013-06-04 20:08:00,85.0,70.0,29.74,ENE,68,1.1,2.2,61,0.00,,,0.00,WUHU216HW,2013-06-05 01:08:00,
2013-06-04 20:13:00,84.6,69.8,29.74,ENE,68,1.3,2.2,61,0.00,,,0.00,WUHU216HW,2013-06-05 01:13:00,
2013-06-04 20:18:00,84.4,70.0,29.75,ENE,68,2.5,2.5,62,0.00,,,0.00,WUHU216HW,2013-06-05 01:18:00,
2013-06-04 20:23:00,84.1,70.1,29.75,ESE,113,1.6,2.5,63,0.00,,,0.00,WUHU216HW,2013-06-05 01:23:00,
2013-06-04 20:28:00,83.5,69.6,29.74,East,90,1.8,2.7,63,0.00,,,0.00,WUHU216HW,2013-06-05 01:28:00,
2013-06-04 20:33:00,83.3,69.8,29.75,ESE,113,0.9,2.7,64,0.00,,,0.00,WUHU216HW,2013-06-05 01:33:00,
2013-06-04 20:38:00,83.0,69.5,29.75,East,90,0.9,1.6,64,0.00,,,0.00,WUHU216HW,2013-06-05 01:38:00,
2013-06-04 20:43:00,82.8,68.9,29.75,ESE,113,1.1,1.6,63,0.00,,,0.00,WUHU216HW,2013-06-05 01:43:00,
2013-06-04 20:48:00,82.6,69.6,29.75,East,90,0.4,1.1,65,0.00,,,0.00,WUHU216HW,2013-06-05 01:48:00,
2013-06-04 20:53:00,82.4,69.4,29.75,ESE,113,1.8,1.8,65,0.00,,,0.00,WUHU216HW,2013-06-05 01:53:00,
2013-06-04 20:58:00,82.1,69.0,29.75,ESE,113,0.7,1.8,65,0.00,,,0.00,WUHU216HW,2013-06-05 01:58:00,
2013-06-04 21:03:00,81.9,69.0,29.76,ESE,113,0.4,1.6,65,0.00,,,0.00,WUHU216HW,2013-06-05 02:03:00,
2013-06-04 21:08:00,81.7,69.2,29.75,ESE,113,0.0,1.1,66,0.00,,,0.00,WUHU216HW,2013-06-05 02:08:00,
2013-06-04 21:13:00,81.7,69.2,29.76,ESE,113,0.2,0.9,66,0.00,,,0.00,WUHU216HW,2013-06-05 02:13:00,
2013-06-04 21:18:00,81.4,68.9,29.76,East,90,0.0,0.7,66,0.00,,,0.00,WUHU216HW,2013-06-05 02:18:00,
2013-06-04 21:23:00,81.2,69.1,29.76,East,90,0.2,0.9,67,0.00,,,0.00,WUHU216HW,2013-06-05 02:23:00,
2013-06-04 21:28:00,80.8,68.9,29.76,ESE,113,0.4,1.6,67,0.00,,,0.00,WUHU216HW,2013-06-05 02:28:00,
2013-06-04 21:33:00,80.8,68.9,29.76,East,90,0.7,1.6,67,0.00,,,0.00,WUHU216HW,2013-06-05 02:33:00,
2013-06-04 21:38:00,80.6,68.7,29.77,ESE,113,0.0,0.9,67,0.00,,,0.00,WUHU216HW,2013-06-05 02:38:00,
2013-06-04 21:43:00,80.5,68.5,29.77,ESE,113,0.0,0.9,67,0.00,,,0.00,WUHU216HW,2013-06-05 02:43:00,
2013-06-04 21:48:00,80.3,69.2,29.77,ESE,113,1.1,1.1,69,0.00,,,0.00,WUHU216HW,2013-06-05 02:48:00,
2013-06-04 21:53:00,79.9,68.9,29.77,East,90,0.9,1.1,69,0.00,,,0.00,WUHU216HW,2013-06-05 02:53:00,
2013-06-04 21:58:00,79.7,68.7,29.77,East,90,0.0,0.9,69,0.00,,,0.00,WUHU216HW,2013-06-05 02:58:00,
2013-06-04 22:03:00,79.7,69.1,29.78,East,90,0.0,0.7,70,0.00,,,0.00,WUHU216HW,2013-06-05 03:03:00,
2013-06-04 22:08:00,79.6,68.9,29.78,East,90,0.0,0.0,70,0.00,,,0.00,WUHU216HW,2013-06-05 03:08:00,
2013-06-04 22:13:00,79.6,68.9,29.78,East,90,0.0,0.2,70,0.00,,,0.00,WUHU216HW,2013-06-05 03:13:00,
2013-06-04 22:18:00,79.2,68.9,29.79,ESE,113,1.6,1.6,71,0.00,,,0.00,WUHU216HW,2013-06-05 03:18:00,
2013-06-04 22:23:00,78.8,69.4,29.79,ESE,113,1.8,1.8,73,0.00,,,0.00,WUHU216HW,2013-06-05 03:23:00,
2013-06-04 22:29:00,78.1,69.1,29.79,ESE,113,2.2,2.5,74,0.00,,,0.00,WUHU216HW,2013-06-05 03:29:00,
2013-06-04 22:34:00,78.1,69.1,29.79,ESE,113,2.5,3.4,74,0.00,,,0.00,WUHU216HW,2013-06-05 03:34:00,
2013-06-04 22:39:00,78.1,68.8,29.78,ESE,113,2.5,4.3,73,0.00,,,0.00,WUHU216HW,2013-06-05 03:39:00,
2013-06-04 22:44:00,78.3,69.0,29.78,ESE,113,1.1,4.3,73,0.00,,,0.00,WUHU216HW,2013-06-05 03:44:00,
2013-06-04 22:49:00,78.3,69.0,29.78,East,90,2.5,4.0,73,0.00,,,0.00,WUHU216HW,2013-06-05 03:49:00,
2013-06-04 22:54:00,78.1,68.8,29.78,ESE,113,2.5,3.4,73,0.00,,,0.00,WUHU216HW,2013-06-05 03:54:00,
2013-06-04 22:59:00,78.1,68.8,29.79,SE,135,4.0,4.0,73,0.00,,,0.00,WUHU216HW,2013-06-05 03:59:00,
2013-06-04 23:01:00,78.3,68.5,29.79,ESE,113,3.1,4.0,72,0.00,,,0.00,WUHU216HW,2013-06-05 04:01:00,
2013-06-04 23:02:00,78.3,68.5,29.78,ESE,113,3.6,4.0,72,0.00,,,0.00,WUHU216HW,2013-06-05 04:02:00,
2013-06-04 23:07:00,78.5,68.7,29.79,SE,135,2.5,4.0,72,0.00,,,0.00,WUHU216HW,2013-06-05 04:07:00,
2013-06-04 23:12:00,78.3,68.5,29.79,SE,135,2.9,3.6,72,0.00,,,0.00,WUHU216HW,2013-06-05 04:12:00,
2013-06-04 23:17:00,78.5,68.3,29.79,ESE,113,4.7,5.8,71,0.00,,,0.00,WUHU216HW,2013-06-05 04:17:00,
2013-06-04 23:22:00,78.7,68.0,29.78,ESE,113,4.3,5.8,70,0.00,,,0.00,WUHU216HW,2013-06-05 04:22:00,
2013-06-04 23:27:00,78.8,68.2,29.79,SE,135,4.7,7.6,70,0.00,,,0.00,WUHU216HW,2013-06-05 04:27:00,
2013-06-04 23:32:00,78.8,68.2,29.79,East,90,2.2,7.6,70,0.00,,,0.00,WUHU216HW,2013-06-05 04:32:00,
2013-06-04 23:37:00,78.8,68.2,29.79,ESE,113,3.1,4.0,70,0.00,,,0.00,WUHU216HW,2013-06-05 04:37:00,
2013-06-04 23:42:00,78.8,67.8,29.78,SE,135,3.4,6.0,69,0.00,,,0.00,WUHU216HW,2013-06-05 04:42:00,
2013-06-04 23:47:00,78.8,67.8,29.78,SE,135,5.4,6.0,69,0.00,,,0.00,WUHU216HW,2013-06-05 04:47:00,
2013-06-04 23:52:00,78.8,67.8,29.78,SE,135,4.5,5.4,69,0.00,,,0.00,WUHU216HW,2013-06-05 04:52:00,
2013-06-04 23:57:00,79.0,68.0,29.78,ESE,113,2.7,5.4,69,0.00,,,0.00,WUHU216HW,2013-06-05 04:57:00,